THOR 6

Last updated on Tue Sep 22 2026 00:03:11 GMT+0000 (Coordinated Universal Time)

1 36033U 09058B 26264.34633005 -.00000014 00000+0 00000+0 0 9995 2 36033 0.0097 156.9295 0001902 36.5152 290.6317 1.00271478 61975
UTC large
Height (km)
Speed (km/s)
/
Latitude / Longitude
Inclination (degrees)
Orbital Period (minutes)
Azimuth
Elevation
Range (km)
Doppler Factor

Next 0 passes for location: London (51.5072 / 0.1276)

No passes found over London.
THOR 6